Location: Baix
(44.7118°N, 4.7648°E)
Time: 07:33:13
(UTC+00:00)

Vanguard 1 - Pass Details

Date: 29 November 2020
Orbit: 648 x 3834 km, 34.3° (Epoch: 21 January)

Event Time Altitude Azimuth Distance (km) Brightness Sun altitude
Rises 06:16:28 0° 250° (WSW) 3,690 12.6 -7.1°
Reaches altitude 10° 06:18:42 10° 243° (WSW) 2,985 12.2 -6.7°
Maximum altitude 06:25:44 46° 172° (S) 2,063 12.0 -5.6°
Drops below altitude 10° 06:38:19 10° 106° (ESE) 5,240 15.6 -3.6°
Sets 06:43:42 0° 102° (ESE) 6,764 16.2 -2.7°
